Location: Gleizolles
(44.4833°N, 6.7667°E)
Time: 13:53:23
(UTC+00:00)

Vanguard 1 - Pass Details

Date: 04 July 2024
Orbit: 650 x 3826 km, 34.3° (Epoch: 15 July)

Event Time Altitude Azimuth Distance (km) Brightness Sun altitude
Rises 12:03:44 0° 270° (W) 5,597 14.0 67.7°
Reaches altitude 10° 12:08:36 10° 262° (W) 4,024 13.5 67.4°
Maximum altitude 12:16:28 29° 207° (SSW) 2,007 12.6 66.9°
Drops below altitude 10° 12:21:33 10° 148° (SSE) 2,543 12.5 66.5°
Sets 12:23:55 0° 136° (SE) 3,267 12.9 66.3°
